Location: Archemont
(49.1579°N, 1.7598°E)
Time: 21:53:04
(UTC+00:00)

Meteor PRIRODA - Pass Details

Date: 03 February 2023
Orbit: 475 x 489 km, 97.6° (Epoch: 21 March)

Event Time Altitude Azimuth Distance (km) Brightness Sun altitude
Rises 17:39:33 0° 172° (S) 2,514 7.3 -8.0°
Reaches altitude 10° 17:41:37 10° 175° (S) 1,641 6.4 -8.4°
Maximum altitude 17:45:07 66° 258° (WSW) 526 4.0 -8.9°
Drops below altitude 10° 17:48:39 10° 341° (NNW) 1,658 6.3 -9.5°
Sets 17:50:44 0° 345° (NNW) 2,543 7.2 -9.8°
